• In Belarus
  • List of Countries
  • For 7 days
  • Water Temperature
  • Satellite Maps
  • Weather Map
  • Weather Widgets
  • user-avatar
    Login

    Hourly Weather Nevinnomyssk

    Today, 28 May, Monday

    Time Temperature Precipitation Wind Pressure Humidity
    00:00 +13°C° 0 mm 4 mps 709 mmHg 84%
    01:00 +13°C° 0 mm 3 mps 709 mmHg 83%
    02:00 +12°C° 0 mm 3 mps 709 mmHg 81%
    03:00 +12°C° 0 mm 3 mps 709 mmHg 79%
    04:00 +14°C° 0 mm 2 mps 709 mmHg 79%
    05:00 +14°C° 0 mm 2 mps 709 mmHg 79%
    06:00 +14°C° 0 mm 2 mps 709 mmHg 79%
    07:00 +17°C° 0 mm 2 mps 709 mmHg 74%
    08:00 +19°C° 0 mm 2 mps 710 mmHg 70%
    09:00 +23°C° 0 mm 1 mps 710 mmHg 65%
    10:00 +24°C° 0 mm 2 mps 710 mmHg 64%
    11:00 +25°C° 0 mm 2 mps 710 mmHg 63%
    12:00 +25°C° 0 mm 3 mps 710 mmHg 62%
    13:00 +26°C° 0.2 mm 3 mps 710 mmHg 64%
    14:00 +26°C° 0.2 mm 3 mps 710 mmHg 65%
    15:00 +26°C° 0.2 mm 3 mps 710 mmHg 67%
    16:00 +25°C° 0.2 mm 3 mps 709 mmHg 72%
    17:00 +24°C° 0.2 mm 3 mps 709 mmHg 76%
    18:00 +22°C° 0.2 mm 3 mps 709 mmHg 81%
    19:00 +20°C° 0.1 mm 3 mps 709 mmHg 84%
    20:00 +19°C° 0.1 mm 3 mps 709 mmHg 86%
    21:00 +17°C° 0.1 mm 3 mps 709 mmHg 89%
    22:00 +17°C° 0 mm 3 mps 709 mmHg 87%
    23:00 +16°C° 0 mm 3 mps 709 mmHg 84%

    Tomorrow, 29 May, Tuesday

    Time Temperature Precipitation Wind Pressure Humidity
    00:00 +15°C° 0 mm 4 mps 709 mmHg 82%
    01:00 +14°C° 0 mm 4 mps 709 mmHg 79%
    02:00 +14°C° 0 mm 4 mps 709 mmHg 75%
    03:00 +13°C° 0 mm 4 mps 708 mmHg 72%
    04:00 +13°C° 0 mm 4 mps 708 mmHg 74%
    05:00 +13°C° 0 mm 4 mps 708 mmHg 77%
    06:00 +13°C° 0 mm 5 mps 708 mmHg 80%
    07:00 +15°C° 0 mm 6 mps 709 mmHg 77%
    08:00 +16°C° 0 mm 7 mps 709 mmHg 75%
    09:00 +18°C° 0 mm 8 mps 709 mmHg 73%
    10:00 +18°C° 0 mm 8 mps 709 mmHg 70%
    11:00 +20°C° 0 mm 8 mps 709 mmHg 68%
    12:00 +19°C° 0 mm 9 mps 709 mmHg 65%
    13:00 +19°C° 0 mm 9 mps 708 mmHg 66%
    14:00 +19°C° 0 mm 9 mps 708 mmHg 67%
    15:00 +19°C° 0 mm 9 mps 708 mmHg 67%
    16:00 +18°C° 0 mm 8 mps 708 mmHg 70%
    17:00 +17°C° 0 mm 8 mps 708 mmHg 73%
    18:00 +17°C° 0 mm 7 mps 707 mmHg 75%
    19:00 +16°C° 0 mm 7 mps 707 mmHg 74%
    20:00 +15°C° 0 mm 7 mps 707 mmHg 72%
    21:00 +14°C° 0 mm 7 mps 707 mmHg 71%
    22:00 +12°C° 0 mm 7 mps 707 mmHg 71%
    23:00 +12°C° 0 mm 7 mps 707 mmHg 71%

    Day after tomorrow, 30 May, Wednesday

    Time Temperature Precipitation Wind Pressure Humidity
    00:00 +11°C° 0 mm 7 mps 707 mmHg 71%
    01:00 +11°C° 0 mm 7 mps 707 mmHg 70%
    02:00 +10°C° 0 mm 7 mps 707 mmHg 69%
    03:00 +10°C° 0 mm 7 mps 706 mmHg 68%
    04:00 +10°C° 0 mm 7 mps 706 mmHg 71%
    05:00 +10°C° 0 mm 7 mps 706 mmHg 74%
    06:00 +10°C° 0 mm 6 mps 706 mmHg 77%
    07:00 +11°C° 0 mm 7 mps 706 mmHg 76%
    08:00 +12°C° 0 mm 7 mps 706 mmHg 75%
    09:00 +15°C° 0 mm 7 mps 706 mmHg 74%
    10:00 +16°C° 0.1 mm 7 mps 706 mmHg 74%
    11:00 +16°C° 0.1 mm 7 mps 706 mmHg 75%
    12:00 +17°C° 0.1 mm 6 mps 706 mmHg 75%
    13:00 +17°C° 0.3 mm 6 mps 706 mmHg 77%
    14:00 +19°C° 0.3 mm 6 mps 706 mmHg 78%
    15:00 +19°C° 0.3 mm 5 mps 706 mmHg 79%
    16:00 +17°C° 0.1 mm 5 mps 706 mmHg 81%
    17:00 +18°C° 0.1 mm 4 mps 705 mmHg 83%
    18:00 +18°C° 0.1 mm 4 mps 705 mmHg 84%
    19:00 +17°C° 0 mm 4 mps 705 mmHg 85%
    20:00 +15°C° 0 mm 4 mps 705 mmHg 85%
    21:00 +16°C° 0 mm 3 mps 705 mmHg 86%
    22:00 +14°C° 0 mm 3 mps 704 mmHg 87%
    23:00 +13°C° 0 mm 3 mps 704 mmHg 88%

    31 May, Thursday

    Time Temperature Precipitation Wind Pressure Humidity
    00:00 +13°C° 0 mm 3 mps 704 mmHg 89%
    01:00 +13°C° 0 mm 3 mps 703 mmHg 89%
    02:00 +13°C° 0 mm 2 mps 703 mmHg 89%
    03:00 +13°C° 0 mm 2 mps 703 mmHg 89%
    04:00 +13°C° 0 mm 2 mps 703 mmHg 88%
    05:00 +13°C° 0 mm 2 mps 703 mmHg 87%
    06:00 +14°C° 0 mm 2 mps 703 mmHg 86%
    07:00 +16°C° 0 mm 2 mps 703 mmHg 80%
    08:00 +19°C° 0 mm 2 mps 703 mmHg 74%
    09:00 +21°C° 0 mm 2 mps 703 mmHg 68%
    10:00 +23°C° 0.1 mm 2 mps 703 mmHg 66%
    11:00 +24°C° 0.1 mm 2 mps 703 mmHg 64%
    12:00 +25°C° 0.1 mm 2 mps 703 mmHg 62%
    13:00 +25°C° 1.1 mm 2 mps 703 mmHg 65%
    14:00 +24°C° 1.1 mm 1 mps 702 mmHg 68%
    15:00 +24°C° 1.1 mm 1 mps 702 mmHg 71%
    16:00 +23°C° 0.6 mm 1 mps 702 mmHg 76%
    17:00 +22°C° 0.6 mm 1 mps 702 mmHg 81%
    18:00 +21°C° 0.6 mm 1 mps 702 mmHg 86%
    19:00 +20°C° 0.1 mm 1 mps 702 mmHg 87%
    20:00 +19°C° 0.1 mm 1 mps 702 mmHg 88%
    21:00 +18°C° 0.1 mm 1 mps 702 mmHg 90%
    22:00 +18°C° 0 mm 1 mps 702 mmHg 89%
    23:00 +16°C° 0 mm 1 mps 701 mmHg 89%

    1 June, Friday

    Time Temperature Precipitation Wind Pressure Humidity
    00:00 +16°C° 0 mm 2 mps 701 mmHg 89%
    01:00 +15°C° 0 mm 1 mps 701 mmHg 88%
    02:00 +15°C° 0 mm 1 mps 701 mmHg 88%
    03:00 +15°C° 0 mm 1 mps 701 mmHg 88%
    04:00 +15°C° 0 mm 1 mps 701 mmHg 88%
    05:00 +16°C° 0 mm 1 mps 701 mmHg 87%
    06:00 +16°C° 0 mm 1 mps 701 mmHg 87%
    07:00 +19°C° 0 mm 1 mps 702 mmHg 80%
    08:00 +21°C° 0 mm 1 mps 702 mmHg 74%
    09:00 +23°C° 0 mm 1 mps 702 mmHg 67%
    10:00 +23°C° 0.4 mm 1 mps 702 mmHg 68%
    11:00 +24°C° 0.4 mm 2 mps 702 mmHg 68%
    12:00 +25°C° 0.4 mm 2 mps 702 mmHg 68%
    13:00 +24°C° 1.7 mm 2 mps 702 mmHg 72%
    14:00 +23°C° 1.7 mm 2 mps 702 mmHg 75%
    15:00 +23°C° 1.7 mm 1 mps 702 mmHg 79%
    16:00 +21°C° 1.6 mm 2 mps 702 mmHg 83%
    17:00 +20°C° 1.6 mm 2 mps 702 mmHg 87%
    18:00 +19°C° 1.6 mm 2 mps 702 mmHg 91%
    19:00 +18°C° 0.8 mm 2 mps 702 mmHg 92%
    20:00 +18°C° 0.8 mm 1 mps 702 mmHg 94%
    21:00 +16°C° 0.8 mm 1 mps 702 mmHg 95%
    22:00 +16°C° 0.7 mm 1 mps 702 mmHg 95%
    23:00 +16°C° 0.7 mm 1 mps 702 mmHg 95%

    2 June, Saturday

    Time Temperature Precipitation Wind Pressure Humidity
    00:00 +16°C° 0.7 mm 1 mps 702 mmHg 95%
    01:00 +15°C° 0.1 mm 1 mps 702 mmHg 95%
    02:00 +15°C° 0.1 mm 1 mps 702 mmHg 95%
    03:00 +14°C° 0.1 mm 1 mps 702 mmHg 95%
    04:00 +15°C° 0 mm 1 mps 702 mmHg 94%
    05:00 +15°C° 0 mm 1 mps 703 mmHg 93%
    06:00 +16°C° 0 mm 1 mps 703 mmHg 92%
    07:00 +18°C° 0.1 mm 1 mps 703 mmHg 88%
    08:00 +19°C° 0.1 mm 1 mps 703 mmHg 84%
    09:00 +21°C° 0.1 mm 1 mps 704 mmHg 79%
    10:00 +21°C° 0.8 mm 2 mps 704 mmHg 78%
    11:00 +21°C° 0.8 mm 2 mps 704 mmHg 78%
    12:00 +22°C° 0.8 mm 3 mps 704 mmHg 77%
    13:00 +22°C° 2.3 mm 3 mps 704 mmHg 79%
    14:00 +21°C° 2.3 mm 3 mps 704 mmHg 80%
    15:00 +21°C° 2.3 mm 3 mps 704 mmHg 82%
    16:00 +20°C° 2.1 mm 2 mps 704 mmHg 85%
    17:00 +19°C° 2.1 mm 2 mps 704 mmHg 88%
    18:00 +19°C° 2.1 mm 1 mps 704 mmHg 91%
    19:00 +19°C° 1 mm 1 mps 704 mmHg 92%
    20:00 +18°C° 1 mm 1 mps 705 mmHg 93%
    21:00 +15°C° 1 mm 0 mps 705 mmHg 94%
    22:00 +16°C° 0.3 mm 1 mps 705 mmHg 94%
    23:00 +16°C° 0.3 mm 1 mps 705 mmHg 94%
    Show more